Location: ??
(35.5052°N, 139.7262°E)
Time: 18:16:16
(UTC+00:00)

Cosmos 1782 - Pass Details

Date: 20 June 2021
Orbit: 537 x 550 km, 82.5° (Epoch: 29 July)

Event Time Altitude Azimuth Distance (km) Brightness Sun altitude
Rises 18:09:31 0° 335° (NNW) 2,715 6.6 -13.4°
Reaches altitude 10° 18:12:07 10° 318° (NW) 1,820 5.5 -13.0°
Maximum altitude 18:15:02 20° 271° (W) 1,309 4.3 -12.6°
Enters shadow 18:16:10 18° 249° (WSW) 1,396 4.3 -12.4°
